This is the latest recevied weather packets stored in our database for station/object WV5G-13. If no packets are shown the sender has not sent any weather packets the latest 10 day(s).
| Time | Temp. | Humidity | Pressure | Rain* | Wind** | Luminosity | Snow |
|---|---|---|---|---|---|---|---|
| 1777472478 | 8.89° C | 77% | 1018.2 hPa | 0 mm | - | 335 W/m² | - |
| 1777472175 | 8.33° C | 78% | 1018.8 hPa | 0 mm | - | 296 W/m² | - |
| 1777471870 | 8.33° C | 78% | 1018.5 hPa | 0 mm | - | 306 W/m² | - |
| 1777471567 | 8.33° C | 78% | 1018.1 hPa | 0 mm | - | 275 W/m² | - |
| 1777471264 | 8.33° C | 79% | 1018.5 hPa | 0 mm | - | 251 W/m² | - |
| 1777470960 | 7.78° C | 80% | 1018.1 hPa | 0 mm | - | 230 W/m² | - |
| 1777470657 | 7.78° C | 80% | 1018.2 hPa | 0 mm | - | 224 W/m² | - |
| 1777470353 | 7.78° C | 81% | 1018.5 hPa | 0 mm | - | 231 W/m² | - |
| 1777470050 | 7.22° C | 82% | 1018.4 hPa | 0 mm | - | 200 W/m² | - |
| 1777469746 | 7.22° C | 82% | 1018.2 hPa | 0 mm | - | 196 W/m² | - |
| 1777469442 | 7.22° C | 83% | 1018.1 hPa | 0 mm | - | 161 W/m² | - |
| 1777469137 | 7.22° C | 83% | 1018 hPa | 0 mm | - | 148 W/m² | - |
| 1777468837 | 6.67° C | 84% | 1017.9 hPa | 0 mm | - | 138 W/m² | - |
| 1777468533 | 6.67° C | 84% | 1017.9 hPa | 0 mm | - | 120 W/m² | - |
| 1777468230 | 6.67° C | 85% | 1017.9 hPa | 0 mm | - | 109 W/m² | - |
| 1777467927 | 6.11° C | 85% | 1017.9 hPa | 0 mm | - | 108 W/m² | - |
| 1777467622 | 6.11° C | 85% | 1017.9 hPa | 0 mm | - | 89 W/m² | - |
| 1777467318 | 6.11° C | 86% | 1017.7 hPa | 0 mm | - | 103 W/m² | - |
| 1777467014 | 6.11° C | 86% | 1017.8 hPa | 0 mm | - | 102 W/m² | - |
| 1777466712 | 5.56° C | 87% | 1017.7 hPa | 0 mm | - | 75 W/m² | - |
| 1777466409 | 5.56° C | 87% | 1017.4 hPa | 0 mm | - | 55 W/m² | - |
| 1777466105 | 5.56° C | 87% | 1017.6 hPa | 0 mm | - | 40 W/m² | - |
| 1777465801 | 5.56° C | 87% | 1017.6 hPa | 0 mm | - | 34 W/m² | - |
| 1777465496 | 5° C | 87% | 1017.5 hPa | 0 mm | - | 28 W/m² | - |
| 1777465196 | 5° C | 86% | 1017.5 hPa | 0 mm | - | 20 W/m² | - |
* Rain latest hour (hover to see other rain measurements)
** Current wind speed in m/s (hover to see current wind gust speed)